Location: Franzen
(48.6167°N, 15.3833°E)
Time: 13:23:32
(UTC+00:00)

Cosmos 2266 Rocket - Pass Details

Date: 22 April 2021
Orbit: 934 x 1008 km, 82.9° (Epoch: 16 May)

Event Time Altitude Azimuth Distance (km) Brightness Sun altitude
Rises 19:48:38 0° 349° (N) 3,740 7.9 -16.1°
Reaches altitude 10° 19:51:11 10° 349° (N) 2,780 7.2 -16.4°
Maximum altitude 19:57:34 81° 264° (W) 1,007 4.1 -17.2°
Enters shadow 20:02:36 17° 179° (S) 2,271 5.5 -17.8°
